Location: Charlottesville
(38.0290°N, 78.4770°W)
Time: 09:04:09
(UTC-04:00)

Vanguard 2 - All Passes

Search period start: 15 August 2018 00:00
Search period end: 25 August 2018 00:00
Orbit: 554 x 2938 km, 32.9° (Epoch: 14 August)

Date Brightness Start Highest point End Pass type
(mag) Time Alt. Az. Time Alt. Az. Time Alt. Az.
15 Aug - 10:07:53 10° S 10:09:36 12° SSE 10:11:17 10° SE daylight
15 Aug - 12:13:31 10° SW 12:17:11 37° SSE 12:21:34 10° E daylight
15 Aug - 14:20:46 10° WSW 14:25:07 46° S 14:31:31 10° ESE daylight
15 Aug - 16:28:33 10° WSW 16:33:43 29° SSW 16:41:23 10° SE daylight
15 Aug - 18:39:52 10° SW 18:43:12 12° SSW 18:47:04 10° S daylight
16 Aug - 10:24:35 10° SSW 10:27:29 18° SSE 10:30:18 10° ESE daylight
16 Aug - 12:31:23 10° WSW 12:35:08 42° S 12:39:43 10° ESE daylight
16 Aug - 14:38:49 10° WSW 14:43:09 40° S 14:49:29 10° ESE daylight
16 Aug - 16:47:05 10° WSW 16:51:51 22° SSW 16:58:28 10° SSE daylight
17 Aug - 10:41:56 10° SW 10:45:24 25° SSE 10:48:44 10° ESE daylight
17 Aug - 12:49:19 10° WSW 12:53:06 44° S 12:57:49 10° ESE daylight
17 Aug - 14:56:56 10° WSW 15:01:11 33° SSW 15:07:16 10° SE daylight
17 Aug - 17:06:07 10° WSW 17:09:59 16° SSW 17:14:52 10° S daylight
18 Aug - 08:53:29 10° S 08:55:29 12° SSE 08:57:18 10° SE daylight
18 Aug - 10:59:36 10° SW 11:03:21 32° SSE 11:06:57 10° ESE daylight
18 Aug - 13:07:18 10° WSW 13:11:06 42° S 13:15:51 10° ESE daylight
18 Aug - 15:15:12 10° WSW 15:19:14 26° SSW 15:24:48 10° SE daylight
18 Aug - 17:27:32 10° SSW 17:28:09 10° SSW 17:28:46 10° SSW daylight
19 Aug - 09:10:01 10° SSW 09:13:28 18° SSE 09:16:23 10° ESE daylight
19 Aug - 11:17:27 10° WSW 11:21:18 38° S 11:25:05 10° ESE daylight
19 Aug - 13:25:21 10° WSW 13:29:06 37° S 13:33:48 10° ESE daylight
19 Aug - 15:33:44 10° WSW 15:37:19 19° SSW 15:41:55 10° SSE daylight
20 Aug - 09:27:17 10° SW 09:31:27 25° SSE 09:34:51 10° ESE daylight
20 Aug - 11:35:24 10° WSW 11:39:16 41° S 11:43:08 10° ESE daylight
20 Aug - 13:43:29 10° WSW 13:47:05 30° SSW 13:51:35 10° SE daylight
20 Aug - 15:52:56 10° SW 15:55:23 13° SSW 15:58:15 10° S daylight
21 Aug - 07:37:48 10° S 07:41:11 14° SSE 07:44:00 10° SE daylight
21 Aug - 09:44:55 10° SW 09:49:26 32° S 09:53:05 10° ESE daylight
21 Aug - 11:53:25 10° WSW 11:57:15 40° S 12:01:09 10° ESE daylight
21 Aug - 14:01:46 10° WSW 14:05:05 23° SSW 14:09:09 10° SE daylight
22 Aug - 07:54:25 10° SSW 07:59:16 20° SSE 08:02:57 10° ESE daylight
22 Aug - 10:02:46 10° WSW 10:07:26 38° S 10:11:11 10° ESE daylight
22 Aug - 12:11:30 10° WSW 12:15:13 36° S 12:19:04 10° ESE daylight
22 Aug - 14:20:20 10° WSW 14:23:04 17° SSW 14:26:17 10° SSE daylight
23 Aug - 06:06:00 10° S 06:08:28 11° SSE 06:10:40 10° SE visible
23 Aug - 08:11:40 10° SW 08:17:19 27° SSE 08:21:24 10° ESE daylight
23 Aug - 10:20:44 10° WSW 10:25:25 42° S 10:29:13 10° ESE daylight
23 Aug - 12:29:38 10° WSW 12:33:10 30° SSW 12:36:52 10° SE daylight
23 Aug - 14:39:51 10° SW 14:41:04 11° SSW 14:42:22 10° S daylight
24 Aug - 06:21:16 10° SSW 06:26:37 17° SSE 06:30:44 10° ESE daylight
24 Aug - 08:29:16 10° SW 08:35:23 34° SSE 08:39:37 10° ESE daylight
24 Aug - 10:38:47 10° WSW 10:43:25 43° S 10:47:12 10° ESE daylight
24 Aug - 12:47:54 10° WSW 12:51:07 23° SSW 12:54:29 10° SE daylight
